• In Hungary
  • List of Countries
  • For 7 days
  • Water Temperature
  • Satellite Maps
  • Weather Map
  • News
  • Weather Widgets
  • user-avatar
    Login

    Hourly Weather Shostka

    Today, 15 November, Thursday

    Time Temperature Precipitation Wind Pressure Humidity
    00:00 -2°C° 0.1 mm 4 mps 754 mmHg 84%
    01:00 -2°C° 0.1 mm 4 mps 755 mmHg 84%
    02:00 -3°C° 0 mm 4 mps 755 mmHg 84%
    03:00 -3°C° 0.1 mm 4 mps 755 mmHg 85%
    04:00 -3°C° 0.1 mm 4 mps 755 mmHg 85%
    05:00 -3°C° 0.1 mm 4 mps 756 mmHg 85%
    06:00 -3°C° 0.1 mm 4 mps 756 mmHg 86%
    07:00 -3°C° 0.1 mm 4 mps 756 mmHg 86%
    08:00 -3°C° 0 mm 4 mps 757 mmHg 86%
    09:00 -3°C° 0 mm 4 mps 758 mmHg 84%
    10:00 -2°C° 0 mm 4 mps 758 mmHg 82%
    11:00 0°C° 0 mm 3 mps 759 mmHg 80%
    12:00 0°C° 0 mm 3 mps 759 mmHg 78%
    13:00 0°C° 0 mm 3 mps 759 mmHg 76%
    14:00 +1°C° 0 mm 3 mps 759 mmHg 74%
    15:00 0°C° 0 mm 3 mps 760 mmHg 75%
    16:00 -1°C° 0 mm 3 mps 760 mmHg 76%
    17:00 -2°C° 0 mm 3 mps 761 mmHg 77%
    18:00 -4°C° 0 mm 3 mps 761 mmHg 75%
    19:00 -4°C° 0 mm 3 mps 762 mmHg 73%
    20:00 -4°C° 0 mm 3 mps 762 mmHg 71%
    21:00 -5°C° 0 mm 3 mps 762 mmHg 70%
    22:00 -5°C° 0 mm 3 mps 763 mmHg 69%
    23:00 -5°C° 0 mm 3 mps 763 mmHg 68%

    Tomorrow, 16 November, Friday

    Time Temperature Precipitation Wind Pressure Humidity
    00:00 -5°C° 0 mm 3 mps 763 mmHg 66%
    01:00 -6°C° 0 mm 3 mps 763 mmHg 65%
    02:00 -6°C° 0 mm 3 mps 764 mmHg 64%
    03:00 -6°C° 0 mm 3 mps 764 mmHg 63%
    04:00 -6°C° 0 mm 3 mps 764 mmHg 61%
    05:00 -6°C° 0 mm 3 mps 764 mmHg 60%
    06:00 -6°C° 0 mm 3 mps 764 mmHg 58%
    07:00 -7°C° 0 mm 4 mps 765 mmHg 56%
    08:00 -7°C° 0 mm 4 mps 765 mmHg 54%
    09:00 -4°C° 0 mm 4 mps 765 mmHg 50%
    10:00 -3°C° 0 mm 4 mps 765 mmHg 47%
    11:00 -2°C° 0 mm 4 mps 765 mmHg 44%
    12:00 -2°C° 0 mm 4 mps 765 mmHg 44%
    13:00 -1°C° 0 mm 4 mps 765 mmHg 43%
    14:00 -1°C° 0 mm 4 mps 765 mmHg 43%
    15:00 -2°C° 0 mm 4 mps 765 mmHg 45%
    16:00 -3°C° 0 mm 4 mps 765 mmHg 47%
    17:00 -4°C° 0 mm 4 mps 765 mmHg 49%
    18:00 -5°C° 0 mm 4 mps 766 mmHg 49%
    19:00 -5°C° 0 mm 3 mps 766 mmHg 48%
    20:00 -5°C° 0 mm 3 mps 766 mmHg 48%
    21:00 -5°C° 0 mm 3 mps 766 mmHg 47%
    22:00 -5°C° 0 mm 3 mps 766 mmHg 47%
    23:00 -5°C° 0 mm 3 mps 766 mmHg 47%

    Day after tomorrow, 17 November, Saturday

    Time Temperature Precipitation Wind Pressure Humidity
    00:00 -6°C° 0 mm 3 mps 766 mmHg 46%
    01:00 -6°C° 0 mm 3 mps 766 mmHg 45%
    02:00 -6°C° 0 mm 3 mps 766 mmHg 44%
    03:00 -6°C° 0 mm 3 mps 766 mmHg 44%
    04:00 -6°C° 0 mm 3 mps 765 mmHg 43%
    05:00 -6°C° 0 mm 3 mps 765 mmHg 43%
    06:00 -6°C° 0 mm 3 mps 765 mmHg 42%
    07:00 -6°C° 0 mm 3 mps 765 mmHg 41%
    08:00 -6°C° 0 mm 3 mps 765 mmHg 40%
    09:00 -5°C° 0 mm 3 mps 765 mmHg 37%
    10:00 -2°C° 0 mm 2 mps 765 mmHg 34%
    11:00 -1°C° 0 mm 2 mps 765 mmHg 31%
    12:00 -1°C° 0 mm 2 mps 764 mmHg 34%
    13:00 +1°C° 0 mm 2 mps 764 mmHg 36%
    14:00 +2°C° 0 mm 1 mps 763 mmHg 38%
    15:00 +1°C° 0 mm 1 mps 763 mmHg 39%
    16:00 -1°C° 0 mm 1 mps 762 mmHg 40%
    17:00 -2°C° 0 mm 1 mps 762 mmHg 42%
    18:00 -2°C° 0 mm 1 mps 761 mmHg 42%
    19:00 -2°C° 0 mm 1 mps 761 mmHg 42%
    20:00 -2°C° 0 mm 1 mps 760 mmHg 42%
    21:00 -3°C° 0 mm 1 mps 760 mmHg 43%
    22:00 -3°C° 0 mm 1 mps 759 mmHg 43%
    23:00 -3°C° 0 mm 1 mps 759 mmHg 43%

    18 November, Sunday

    Time Temperature Precipitation Wind Pressure Humidity
    00:00 -5°C° 0 mm 2 mps 758 mmHg 45%
    01:00 -5°C° 0 mm 2 mps 757 mmHg 47%
    02:00 -5°C° 0 mm 2 mps 757 mmHg 49%
    03:00 -5°C° 0 mm 2 mps 756 mmHg 51%
    04:00 -4°C° 0 mm 2 mps 755 mmHg 53%
    05:00 -4°C° 0 mm 2 mps 754 mmHg 55%
    06:00 -5°C° 0 mm 3 mps 754 mmHg 57%
    07:00 -5°C° 0 mm 3 mps 754 mmHg 60%
    08:00 -4°C° 0 mm 3 mps 753 mmHg 63%
    09:00 -4°C° 0.1 mm 3 mps 753 mmHg 65%
    10:00 -4°C° 0.1 mm 3 mps 753 mmHg 67%
    11:00 -2°C° 0.1 mm 3 mps 752 mmHg 69%
    12:00 -2°C° 0.1 mm 3 mps 752 mmHg 71%
    13:00 -2°C° 0.1 mm 3 mps 752 mmHg 73%
    14:00 -2°C° 0.1 mm 3 mps 751 mmHg 75%
    15:00 -2°C° 0.1 mm 2 mps 751 mmHg 78%
    16:00 -2°C° 0.1 mm 2 mps 751 mmHg 82%
    17:00 -3°C° 0.1 mm 2 mps 751 mmHg 85%
    18:00 -3°C° 0.1 mm 2 mps 751 mmHg 86%
    19:00 -3°C° 0.1 mm 2 mps 751 mmHg 86%
    20:00 -1°C° 0.1 mm 1 mps 752 mmHg 87%
    21:00 -1°C° 0.1 mm 1 mps 752 mmHg 87%
    22:00 -3°C° 0.1 mm 2 mps 752 mmHg 87%
    23:00 -3°C° 0.1 mm 2 mps 752 mmHg 87%

    19 November, Monday

    Time Temperature Precipitation Wind Pressure Humidity
    00:00 -3°C° 0.1 mm 2 mps 752 mmHg 86%
    01:00 -3°C° 0.1 mm 2 mps 753 mmHg 85%
    02:00 -3°C° 0.1 mm 2 mps 753 mmHg 83%
    03:00 -3°C° 0 mm 2 mps 753 mmHg 80%
    04:00 -3°C° 0 mm 2 mps 753 mmHg 77%
    05:00 -3°C° 0 mm 2 mps 753 mmHg 75%
    06:00 -3°C° 0 mm 2 mps 754 mmHg 71%
    07:00 -3°C° 0 mm 2 mps 754 mmHg 67%
    08:00 -4°C° 0 mm 2 mps 754 mmHg 64%
    09:00 -4°C° 0 mm 3 mps 755 mmHg 58%
    10:00 -2°C° 0 mm 3 mps 755 mmHg 53%
    11:00 -1°C° 0 mm 3 mps 756 mmHg 48%
    12:00 -1°C° 0 mm 3 mps 756 mmHg 49%
    13:00 -1°C° 0 mm 3 mps 756 mmHg 49%
    14:00 0°C° 0 mm 3 mps 756 mmHg 50%
    15:00 -1°C° 0 mm 3 mps 756 mmHg 52%
    16:00 -2°C° 0 mm 3 mps 756 mmHg 55%
    17:00 -4°C° 0 mm 3 mps 756 mmHg 57%
    18:00 -4°C° 0 mm 4 mps 757 mmHg 57%
    19:00 -4°C° 0 mm 4 mps 757 mmHg 57%
    20:00 -4°C° 0 mm 4 mps 757 mmHg 57%
    21:00 -4°C° 0 mm 4 mps 757 mmHg 58%
    22:00 -4°C° 0 mm 4 mps 757 mmHg 59%
    23:00 -3°C° 0 mm 4 mps 757 mmHg 60%

    20 November, Tuesday

    Time Temperature Precipitation Wind Pressure Humidity
    00:00 -3°C° 0 mm 4 mps 757 mmHg 60%
    01:00 -3°C° 0 mm 4 mps 757 mmHg 60%
    02:00 -3°C° 0 mm 4 mps 757 mmHg 60%
    03:00 -3°C° 0 mm 4 mps 757 mmHg 60%
    04:00 -3°C° 0 mm 4 mps 757 mmHg 61%
    05:00 -3°C° 0 mm 4 mps 757 mmHg 61%
    06:00 -3°C° 0 mm 4 mps 757 mmHg 62%
    07:00 -3°C° 0 mm 4 mps 757 mmHg 63%
    08:00 -5°C° 0 mm 5 mps 757 mmHg 64%
    09:00 -4°C° 0 mm 5 mps 757 mmHg 64%
    10:00 -2°C° 0 mm 5 mps 757 mmHg 63%
    11:00 -1°C° 0 mm 5 mps 757 mmHg 62%
    12:00 -1°C° 0 mm 5 mps 756 mmHg 63%
    13:00 -1°C° 0 mm 4 mps 756 mmHg 64%
    14:00 0°C° 0 mm 4 mps 756 mmHg 65%
    15:00 -1°C° 0 mm 4 mps 756 mmHg 67%
    16:00 -2°C° 0 mm 4 mps 755 mmHg 69%
    17:00 -3°C° 0 mm 4 mps 755 mmHg 72%
    18:00 -3°C° 0 mm 4 mps 755 mmHg 71%
    19:00 -3°C° 0 mm 4 mps 755 mmHg 70%
    20:00 -4°C° 0 mm 4 mps 755 mmHg 69%
    21:00 -4°C° 0 mm 4 mps 755 mmHg 70%
    22:00 -4°C° 0 mm 4 mps 754 mmHg 71%
    23:00 -4°C° 0 mm 4 mps 754 mmHg 71%
    Show more